AirNav   Air Wisconsin Up To $57,000 Bonus
 
 1108 users online  

F86 Caldwell Parish Airport
Columbia, Louisiana, USA

GOING TO COLUMBIA?


FAA INFORMATION EFFECTIVE 30 JANUARY 2020

Location

FAA Identifier: F86
Lat/Long: 32-07-19.8000N 092-03-16.2000W
32-07.330000N 092-03.270000W
32.1221667,-92.0545000
(estimated)
Elevation: 66.9 ft. / 20.4 m (surveyed)
Variation: 04E (1985)
From city: 2 miles NE of COLUMBIA, LA
Time zone: UTC -6 (UTC -5 during Daylight Saving Time)
Zip code: 71418

Airport Operations

Airport use: Open to the public
Activation date: 04/1964
Control tower: no
ARTCC: FORT WORTH CENTER
FSS: DE RIDDER FLIGHT SERVICE STATION
NOTAMs facility: DRI (NOTAM-D service available)
Attendance: UNATNDD
Wind indicator: lighted
Segmented circle: yes
Lights: REIL RWY 01/19 OPR CONS; ACTVT MIRL RWY 01/19 - CTAF.
Beacon: white-green (lighted land airport)
Operates sunset to sunrise.

Airport Communications

CTAF: 122.9

Nearby radio navigation aids

VOR radial/distance  VOR name  Freq  Var
MLUr179/23.7MONROE VORTAC117.2003E
SWBr072/32.9SAWMILL VOR/DME113.7502E

 
NDB name  Hdg/Dist  Freq  Var  ID
BASTROP190/38.932903EBQP -... --.- .--.
RUSTON134/39.836803EROQ .-. --- --.-

Airport Services

Parking: tiedowns
Airframe service: NONE
Powerplant service: NONE
Bottled oxygen: NONE
Bulk oxygen: NONE

Runway Information

Runway 1/19

Dimensions: 3501 x 75 ft. / 1067 x 23 m
Surface: asphalt, in fair condition
GRASS GROWING THROUGH CRACKS.
Weight bearing capacity: 
Single wheel: 6.0
Runway edge lights: medium intensity
RUNWAY 1  RUNWAY 19
Latitude: 32-07.047528N32-07.611090N
Longitude: 092-03.344247W092-03.196722W
Elevation: 66.8 ft.63.0 ft.
Traffic pattern: leftleft
Runway heading: 009 magnetic, 013 true189 magnetic, 193 true
Markings: basic, in fair conditionbasic, in fair condition
Visual slope indicator: 2-light PAPI on left (3.50 degrees glide path)2-light PAPI on left (3.00 degrees glide path)
Runway end identifier lights: yes
REIL OTS APCH END RWY 01.
yes
REIL OTS APCH END RWY 19.
Touchdown point: yes, no lightsyes, no lights
Obstructions: 81 ft. trees, 1580 ft. from runway, 151 ft. right of centerline, 17:1 slope to clear
4 FT FENCE 197 FT FM END OF RWY.
none

Airport Ownership and Management from official FAA records

Ownership: Publicly-owned
Owner: CALDWELL PARISH POLICE JURY
PO BOX 1737
COLUMBIA, LA 71418
Phone 318-649-2681
Manager: REED KEAHEY
PO BOX 1139
COLUMBIA, LA 71418
Phone (318) 331-3888

Airport Operational Statistics

Aircraft based on the field: 10
Single engine airplanes: 10
    
Aircraft operations: avg 38/day *
73% local general aviation
27% transient general aviation
* for 12-month period ending 19 March 2019

Additional Remarks

BIRDS IN VCNTY OF AP.
FOREIGN OBJECTS & DEBRIS PRESENT ON APRON. GRASS GROWING THROUGH CRACKS.
FOR CD CTC MONROE APCH AT 318-327-5641, IF UNAVBL, CTC FORT WORTH ARTCC AT 817-858-7584.

Instrument Procedures

There are no published instrument procedures at F86.

Some nearby airports with instrument procedures:

KMLU - Monroe Regional Airport (23 nm N)
M79 - John H Hooks Jr Memorial Airport (26 nm NE)
0R5 - David G Joyce Airport (32 nm W)
F88 - Jonesboro Airport (35 nm W)
KRSN - Ruston Regional Airport (36 nm NW)
 
Loc | Ops | Rwys | IFR | FBO | Links
Com | Nav | Svcs | Stats | Notes
Area around F86 (Caldwell Parish Airport)
 
Road maps at: MapQuest Bing Google
 
Aerial photo
WARNING: Photo may not be current or correct
Aerial photo of F86 (Caldwell Parish Airport)
Photo by Bob Burns
Photo taken 02-Jan-2011
looking southeast.

Do you have a better or more recent aerial photo of Caldwell Parish Airport that you would like to share? If so, please send us your photo.

 
Sectional chart

 
Airport distance calculator
Flying to Caldwell Parish Airport? Find the distance to fly.

From to F86

Sunrise and sunset
Times for 19-Feb-2020
 Local
(UTC-6)
 Zulu
(UTC)
Morning civil twilight06:2312:23
Sunrise06:4812:48
Sunset17:5723:57
Evening civil twilight18:2100:21

Current date and time
Zulu (UTC)  20-Feb-2020 00:29:50
Local (UTC-6)  19-Feb-2020 18:29:50
 
METAR
KMLU 
24nm N 
192353Z 07006KT 6SM -RA BR SCT012 BKN019 OVC048 07/05 A3029 RMK AO2 SLP257 P0006 60011 T00670050 10072 20067 58006
KRSN 
36nm NW 
200015Z AUTO 05007KT 5SM RA OVC009 05/04 A3031 RMK AO2 T00520041
KBQP 
39nm N 
200015Z AUTO 04003KT 5SM -RA OVC019 06/06 A3029 RMK AO2 P0001 T00600057
K0R4 
44nm SE 
200015Z AUTO 01006KT 10SM RA OVC006 09/08 A3024 RMK AO2 P0003 T00870080
KESF 
45nm S 
192353Z AUTO 04005KT 5SM -RA BR BKN006 OVC010 08/07 A3023 RMK AO2 SLP236 P0004 60032 T00830072 10089 20078 56008 $
TAF
KMLU 
24nm N 
191722Z 1918/2018 04009KT 4SM -SHRA OVC010 FM192300 04008KT 5SM BR OVC008 TEMPO 1923/2003 2SM -SHRA OVC004 FM200300 03007KT 4SM SHRA OVC008
NOTAMs
Click for the latest NOTAMs
NOTAMs are issued by the DoD/FAA and will open in a separate window not controlled by AirNav.

 

 
 

Would you like to see your business listed on this page?

 If your business provides an interesting product or service to pilots, flight crews, aircraft, or users of the Caldwell Parish Airport, you should consider listing it here.  To start the listing process, click on the button below
 
Add a business
 

Other Pages about Caldwell Parish Airport

Update a link
 
Copyright © AirNav, LLC. All rights reserved. Privacy Policy  Contact